Flag for Germany Weather past 2 weeks in Calw, Baden-Württemberg, Germany

Now
91 °F

Passing clouds.


Feels Like: 91 °F
Forecast: 67 / 90 °F
Wind: 3 mph from Northeast

Location: Stuttgart-Echterdingen

Current Time: Jul 2, 2015 at 6:43:55 PM

Latest Report: Jul 2, 2015 at 6:00 PM


Visibility: 37 mi

Pressure: 30.06 "Hg

Humidity: 37%

Dew point: 61 °F

Location of CalwLocation

Historic Weather in Calw — Graph

°F

Calw temperature yesterday

Maximum temperature yesterday: 87 °F (at 4:00 PM)
Minimum temperature yesterday: 60 °F (at 6:00 AM)
Average temperature yesterday: 75 °F

Past Weeks' High & Low Weather Summary

 TemperatureHumidityPressure
High91 °F (Jul 2, 4:00 PM)97% (Jun 24, 7:00 AM)30.24 "Hg (Jun 24, 7:00 AM)
Low46 °F (Jun 24, 6:00 AM)29% (Jul 1, 2:00 PM)29.74 "Hg (Jun 22, 9:00 PM)
Average63 °F69%30.09 "Hg
* Reported Jun 17 6:00 PM — Jul 2 5:00 PM, Calw, Weather by CustomWeather, © 2015

Note: Actual official high and low records may vary slightly from our data, if they occured in-between our weather recording intervals... More about our weather records

Advertising

Calw weather history for previous 24 hours

 ConditionsComfort  
Time TempWeatherWind HumidityBarometerVisibility
5:00 PM
Thu, Jul 2
91 °FPassing clouds.2 mph37%30.06 "Hg37 mi
4:00 PM91 °FPassing clouds.2 mph39%30.06 "Hg37 mi
3:00 PM90 °FPassing clouds.3 mph39%30.06 "Hg37 mi
2:00 PM89 °FPassing clouds.1 mph39%30.07 "Hg34 mi
1:00 PM88 °FPassing clouds.3 mph38%30.09 "Hg37 mi
12:00 PM86 °FSunny.2 mph43%30.09 "Hg31 mi
11:00 AM83 °FSunny.1 mph49%30.10 "Hg31 mi
10:00 AM80 °FPassing clouds.1 mph51%30.11 "Hg31 mi
9:00 AM75 °FPassing clouds.2 mph64%30.12 "Hg31 mi
8:00 AM71 °FPassing clouds.1 mph76%30.13 "Hg31 mi
7:00 AM68 °FPassing clouds.1 mph81%30.12 "Hg31 mi
6:00 AM64 °FPassing clouds.1 mph80%30.13 "Hg31 mi
4:00 AM65 °FClear.1 mph81%30.11 "Hg22 mi
3:00 AM66 °FClear.1 mph79%30.11 "Hg22 mi
2:00 AM68 °FClear.1 mph76%30.11 "Hg25 mi
1:00 AM69 °FClear.1 mph73%30.10 "Hg25 mi
12:00 AM72 °FClear.1 mph67%30.09 "Hg25 mi
11:00 PM
Wed, Jul 1
74 °FMild.1 mph63%30.08 "HgN/A
10:00 PM76 °FPassing clouds.2 mph60%30.06 "Hg31 mi
9:00 PM80 °FPassing clouds.2 mph57%30.03 "Hg34 mi
8:00 PM83 °FPassing clouds.3 mph50%30.02 "Hg34 mi
7:00 PM86 °FSunny.5 mph46%30.01 "Hg34 mi
6:00 PM87 °FSunny.5 mph39%30.00 "Hg34 mi
Weather by CustomWeather, © 2015

See weather overviewHow to use our weather pages